DW2770 Cefalu IT current weather conditions

sailwx.info

Wind from 248 at 1 knots gusting 1

Air temperature 23.3° C
Dewpoint 19.9° C

Last reported at 2019-Jun-18 06:00 UTC.
Time now 2019-Jun-18 06:52 UTC

Location: N 38°02' E 014°02'.
View on Google Maps.

See reports from other nearby stations

  
Tides and Currents Weather Stations Pressure Air Temp Water Temp Dewpoint Dewpoint Depression Visibility Wind Speed Wind Dir Waves Ship Positions
date/time (UTC)wind fromknots sea level pressurealtimeterstation pressurevisibilityair tempwater tempwave heightnotes
2019-Jun-18 06:00 248 1 gusting 1 23.3
2019-Jun-18 05:50 292 1 gusting 4 23.3
2019-Jun-18 05:40 243 4 gusting 4 23.3
2019-Jun-18 05:30 292 0 gusting 0 23.3
2019-Jun-18 05:20 315 23.9
2019-Jun-18 04:40 068 22.2
2019-Jun-18 04:20 112 21.7
2019-Jun-18 04:10 122 21.7
2019-Jun-18 03:40 168 1 gusting 1 21.7
2019-Jun-18 03:20 180 0 gusting 0 22.2
2019-Jun-18 03:10 158 21.7
2019-Jun-18 02:50 180 22.2
2019-Jun-18 02:30 179 22.2
2019-Jun-18 02:20 158 0 gusting 1 22.2
2019-Jun-18 02:10 158 22.2
2019-Jun-18 02:00 180 0 gusting 1 22.2
2019-Jun-18 01:50 158 1 gusting 5 22.2
2019-Jun-18 01:30 180 2 gusting 2 22.2
2019-Jun-18 01:20 180 1 gusting 2 21.7
2019-Jun-18 01:10 158 1 gusting 2 21.7
2019-Jun-18 01:00 162 2 gusting 4 21.7
2019-Jun-18 00:50 180 2 gusting 2 21.7
2019-Jun-18 00:40 176 1 gusting 2 21.7
2019-Jun-18 00:20 135 0 gusting 0 22.2
2019-Jun-18 00:10 180 0 gusting 5 22.8
2019-Jun-18 00:00 190 5 gusting 5 22.8
2019-Jun-17 23:50 180 2 gusting 5 22.8
2019-Jun-17 23:40 180 4 gusting 5 22.8
2019-Jun-17 23:30 188 4 gusting 4 22.8
2019-Jun-17 23:10 180 0 gusting 0 22.8
2019-Jun-17 23:00 169 22.8
2019-Jun-17 22:50 180 22.8
2019-Jun-17 22:40 180 1 gusting 2 22.8
2019-Jun-17 22:30 165 0 gusting 1 22.8
2019-Jun-17 22:10 201 0 gusting 4 22.2
2019-Jun-17 22:00 138 1 gusting 2 22.2
2019-Jun-17 21:50 158 1 gusting 2 22.2
2019-Jun-17 21:40 112 22.2
2019-Jun-17 21:30 105 22.2
2019-Jun-17 21:20 022 22.2
2019-Jun-17 21:10 090 22.2
2019-Jun-17 21:00 061 22.8
2019-Jun-17 20:50 022 22.8
2019-Jun-17 20:30 059 22.8
2019-Jun-17 20:20 045 23.3
2019-Jun-17 20:10 045 23.3
2019-Jun-17 20:00 053 23.3
2019-Jun-17 19:30 068 0 gusting 0 23.3
2019-Jun-17 19:20 068 23.3
2019-Jun-17 19:10 068 23.3
2019-Jun-17 18:50 068 23.3
2019-Jun-16 23:00 158 0 gusting 1 21.7
2019-Jun-16 22:40 158 1 gusting 1 21.1
2019-Jun-16 22:30 202 21.1
2019-Jun-16 22:20 197 21.1
2019-Jun-16 22:10 068 21.1
2019-Jun-16 22:00 068 21.7
2019-Jun-16 21:50 068 22.2
2019-Jun-16 21:20 072 0 gusting 0 22.8
2019-Jun-16 20:50 093 22.8
2019-Jun-16 20:40 135 1 gusting 1 22.8
2019-Jun-16 20:30 068 2 gusting 2 22.8
2019-Jun-16 20:20 048 22.8
2019-Jun-16 20:11 090 22.8
2019-Jun-16 19:50 075 0 gusting 1 22.8
2019-Jun-16 19:40 072 22.8
2019-Jun-16 19:30 068 22.8
2019-Jun-16 19:10 072 22.2
2019-Jun-16 19:00 135 22.2
2019-Jun-16 18:50 153 22.2
2019-Jun-16 18:40 089 22.8
2019-Jun-16 18:30 068 22.8
2019-Jun-16 18:10 068 1 gusting 2 23.3
2019-Jun-16 18:00 045 1 gusting 2 23.3
2019-Jun-16 17:50 069 1 gusting 2 23.3
2019-Jun-16 17:40 046 1 gusting 2 23.3
2019-Jun-16 17:30 090 0 gusting 2 23.9
2019-Jun-16 17:20 068 0 gusting 1 23.9
2019-Jun-16 17:10 044 1 gusting 2 23.9
2019-Jun-16 17:00 068 1 gusting 2 23.9
2019-Jun-16 16:50 093 2 gusting 2 23.9
2019-Jun-16 16:30 068 5 gusting 6 23.3